TimeMST,TemperatureF,Dew PointF,Humidity,Sea Level PressureIn,VisibilityMPH,Wind Direction,Wind SpeedMPH,Gust SpeedMPH,PrecipitationIn,Events,Conditions,WindDirDegrees,DateUTC
12:15 AM,24.8,17.6,74,29.84,10.0,SSE,3.5,-,N/A,,Partly Cloudy,150,2013-02-19 07:15:00
12:35 AM,24.8,17.6,74,29.83,10.0,ESE,4.6,-,N/A,,Partly Cloudy,120,2013-02-19 07:35:00
12:55 AM,24.8,19.4,80,29.83,10.0,Calm,Calm,-,N/A,,Mostly Cloudy,0,2013-02-19 07:55:00
1:15 AM,24.8,17.6,74,29.82,10.0,Calm,Calm,-,N/A,,Overcast,0,2013-02-19 08:15:00
1:35 AM,24.8,17.6,74,29.81,10.0,SSE,3.5,-,N/A,,Mostly Cloudy,160,2013-02-19 08:35:00
1:55 AM,24.8,17.6,74,29.80,10.0,ESE,3.5,-,N/A,,Overcast,120,2013-02-19 08:55:00
2:15 AM,24.8,17.6,74,29.80,10.0,Calm,Calm,-,N/A,,Overcast,0,2013-02-19 09:15:00
2:35 AM,24.8,17.6,74,29.80,10.0,Calm,Calm,-,N/A,,Overcast,0,2013-02-19 09:35:00
2:55 AM,24.8,17.6,74,29.79,10.0,Calm,Calm,-,N/A,,Overcast,0,2013-02-19 09:55:00
3:15 AM,24.8,17.6,74,29.78,10.0,Calm,Calm,-,N/A,,Overcast,0,2013-02-19 10:15:00
3:35 AM,24.8,17.6,74,29.78,10.0,Calm,Calm,-,N/A,,Overcast,0,2013-02-19 10:35:00
3:55 AM,24.8,17.6,74,29.77,10.0,Calm,Calm,-,N/A,,Overcast,0,2013-02-19 10:55:00
4:15 AM,24.8,17.6,74,29.76,10.0,Calm,Calm,-,N/A,,Overcast,0,2013-02-19 11:15:00
4:55 AM,23.0,17.6,80,29.75,10.0,South,4.6,-,N/A,,Overcast,170,2013-02-19 11:55:00
5:35 AM,24.8,17.6,74,29.74,10.0,Calm,Calm,-,N/A,,Overcast,0,2013-02-19 12:35:00
5:55 AM,24.8,19.4,80,29.74,10.0,SE,3.5,-,N/A,,Overcast,130,2013-02-19 12:55:00
6:15 AM,24.8,17.6,74,29.74,10.0,SSE,3.5,-,N/A,,Overcast,160,2013-02-19 13:15:00
6:35 AM,24.8,17.6,74,29.73,10.0,Calm,Calm,-,N/A,,Overcast,0,2013-02-19 13:35:00
6:55 AM,24.8,17.6,74,29.72,10.0,Calm,Calm,-,N/A,,Overcast,0,2013-02-19 13:55:00
7:15 AM,23.0,17.6,80,29.72,10.0,SSE,3.5,-,N/A,,Overcast,160,2013-02-19 14:15:00
7:35 AM,23.0,17.6,80,29.72,10.0,Calm,Calm,-,N/A,,Scattered Clouds,0,2013-02-19 14:35:00
7:55 AM,23.0,15.8,74,29.71,10.0,SE,3.5,-,N/A,,Partly Cloudy,130,2013-02-19 14:55:00
8:35 AM,24.8,17.6,74,29.71,10.0,ESE,3.5,-,N/A,,Mostly Cloudy,120,2013-02-19 15:35:00
8:55 AM,24.8,17.6,74,29.71,10.0,Calm,Calm,-,N/A,,Overcast,0,2013-02-19 15:55:00
9:15 AM,24.8,17.6,74,29.71,10.0,Calm,Calm,-,N/A,,Overcast,0,2013-02-19 16:15:00
9:35 AM,26.6,17.6,69,29.71,10.0,Calm,Calm,-,N/A,,Overcast,0,2013-02-19 16:35:00
9:55 AM,26.6,19.4,74,29.71,10.0,Calm,Calm,-,N/A,,Overcast,0,2013-02-19 16:55:00
10:15 AM,26.6,19.4,74,29.70,10.0,Calm,Calm,-,N/A,,Overcast,0,2013-02-19 17:15:00
10:35 AM,28.4,19.4,69,29.69,10.0,Calm,Calm,-,N/A,,Mostly Cloudy,0,2013-02-19 17:35:00
11:15 AM,30.2,17.6,60,29.68,10.0,Calm,Calm,-,N/A,,Partly Cloudy,0,2013-02-19 18:15:00
11:35 AM,30.2,17.6,60,29.67,10.0,Calm,Calm,-,N/A,,Scattered Clouds,0,2013-02-19 18:35:00
11:55 AM,33.8,17.6,52,29.67,10.0,NNW,4.6,-,N/A,,Mostly Cloudy,340,2013-02-19 18:55:00
12:15 PM,33.8,15.8,48,29.66,10.0,NNE,3.5,-,N/A,,Overcast,30,2013-02-19 19:15:00
12:35 PM,33.8,17.6,52,29.66,10.0,NW,5.8,-,N/A,,Scattered Clouds,320,2013-02-19 19:35:00
12:55 PM,35.6,17.6,48,29.65,10.0,NNW,4.6,-,N/A,,Mostly Cloudy,340,2013-02-19 19:55:00
1:15 PM,35.6,17.6,48,29.64,10.0,NW,4.6,-,N/A,,Overcast,320,2013-02-19 20:15:00
1:35 PM,35.6,15.8,44,29.63,10.0,NNW,5.8,-,N/A,,Overcast,330,2013-02-19 20:35:00
1:55 PM,37.4,15.8,41,29.62,10.0,NW,3.5,-,N/A,,Mostly Cloudy,320,2013-02-19 20:55:00
2:35 PM,37.4,14.0,38,29.62,10.0,Calm,Calm,-,N/A,,Clear,0,2013-02-19 21:35:00
2:55 PM,37.4,15.8,41,29.61,10.0,Calm,Calm,-,N/A,,Mostly Cloudy,0,2013-02-19 21:55:00
3:15 PM,39.2,17.6,42,29.61,10.0,NNW,3.5,-,N/A,,Mostly Cloudy,340,2013-02-19 22:15:00
3:35 PM,39.2,17.6,42,29.61,10.0,Calm,Calm,-,N/A,,Partly Cloudy,0,2013-02-19 22:35:00
3:55 PM,39.2,17.6,42,29.61,10.0,NNW,3.5,-,N/A,,Clear,340,2013-02-19 22:55:00
4:15 PM,39.2,17.6,42,29.60,10.0,Calm,Calm,-,N/A,,Clear,0,2013-02-19 23:15:00
5:35 PM,37.4,19.4,48,29.61,10.0,Calm,Calm,-,N/A,,Clear,0,2013-02-20 00:35:00
5:55 PM,33.8,19.4,56,29.62,10.0,ESE,4.6,-,N/A,,Mostly Cloudy,120,2013-02-20 00:55:00
6:15 PM,32.0,21.2,64,29.62,10.0,SE,5.8,-,N/A,,Overcast,130,2013-02-20 01:15:00
6:35 PM,30.2,19.4,64,29.63,10.0,Calm,Calm,-,N/A,,Mostly Cloudy,0,2013-02-20 01:35:00
6:55 PM,30.2,19.4,64,29.64,10.0,Calm,Calm,-,N/A,,Partly Cloudy,0,2013-02-20 01:55:00
7:15 PM,28.4,19.4,69,29.65,10.0,South,4.6,-,N/A,,Scattered Clouds,180,2013-02-20 02:15:00
7:35 PM,28.4,19.4,69,29.65,10.0,SSE,3.5,-,N/A,,Mostly Cloudy,150,2013-02-20 02:35:00
7:55 PM,28.4,19.4,69,29.66,10.0,SE,5.8,-,N/A,,Scattered Clouds,140,2013-02-20 02:55:00
8:15 PM,28.4,19.4,69,29.66,10.0,South,5.8,-,N/A,,Partly Cloudy,170,2013-02-20 03:15:00
8:35 PM,28.4,21.2,74,29.67,10.0,Calm,Calm,-,N/A,,Clear,0,2013-02-20 03:35:00
8:55 PM,26.6,19.4,74,29.67,10.0,SE,3.5,-,N/A,,Clear,140,2013-02-20 03:55:00
9:15 PM,26.6,19.4,74,29.68,10.0,Calm,Calm,-,N/A,,Mostly Cloudy,0,2013-02-20 04:15:00
9:35 PM,24.8,19.4,80,29.68,10.0,Calm,Calm,-,N/A,,Mostly Cloudy,0,2013-02-20 04:35:00
9:55 PM,24.8,19.4,80,29.68,10.0,Calm,Calm,-,N/A,,Mostly Cloudy,0,2013-02-20 04:55:00
10:15 PM,24.8,19.4,80,29.68,10.0,Calm,Calm,-,N/A,,Mostly Cloudy,0,2013-02-20 05:15:00
10:35 PM,24.8,19.4,80,29.69,10.0,Calm,Calm,-,N/A,,Partly Cloudy,0,2013-02-20 05:35:00
11:15 PM,23.0,17.6,80,29.71,10.0,Calm,Calm,-,N/A,,Mostly Cloudy,0,2013-02-20 06:15:00
11:35 PM,23.0,19.4,86,29.71,10.0,Calm,Calm,-,N/A,,Mostly Cloudy,0,2013-02-20 06:35:00
11:55 PM,24.8,19.4,80,29.71,10.0,Calm,Calm,-,N/A,,Overcast,0,2013-02-20 06:55:00